Regional Weather Roundup
Issued by NWS Kansas City/Pleasant Hill, MO

Home | Current Version | Previous Version | Graphics & Text | Print | Product List | Glossary Off
Versions: 1 2 3 4 5 6 7 8 9 10 11 12 13 14 15 16 17 18 19 20 21 22 23 24 25 26 27 28 29 30 31 32 33 34 35 36 37 38 39 40 41 42 43 44 45 46 47 48 49 50

000
ASUS43 KEAX 290704
RWREAX

WEATHER ROUNDUP FOR EASTERN KANSAS AND NORTHWEST MISSOURI
NATIONAL WEATHER SERVICE KANSAS CITY/PLEASANT HILL MO
200 AM CDT SUN MAR 29 2015

KSZ040-057-103>105-MOZ028-029-037-043-290800-
...KANSAS CITY METROPOLITAN AREA...

CITY           SKY/WX    TMP DP  RH WIND       PRES   REMARKS
K.C. INTL      CLEAR     39  32  76 S18       29.99F WCI  30
K.C. DOWNTOWN  CLEAR     41  32  70 S10G18    30.03F WCI  35
LEES SUMMIT    CLEAR     38  31  76 S15G26    30.03F WCI  29
OLATHE - IXD   CLEAR     38  32  79 SE21G28   30.01F WCI  28
OLATHE - OJC   CLEAR     38  32  79 SE14G24   30.01F WCI  30
LAWRENCE       CLEAR     39  33  79 SE16      29.99F WCI  30

$$

MOZ001>008-011>017-020>025-030>033-038>040-044>046-053-054-290800-
...NORTHERN AND CENTRAL MISSOURI...

CITY           SKY/WX    TMP DP  RH WIND       PRES   REMARKS
ST. JOSEPH     CLEAR     41  32  70 S16       29.99F WCI  33
MOSBY          SUNNY     37  32  81 SE8       30.05F WCI  31
WARRENSBURG    CLEAR     36  32  87 SE10      30.08F WCI  28
WHITEMAN AFB   CLEAR     37  32  83 S13G21    30.09F WCI  28
CLINTON        CLEAR     37  34  87 SE12      30.11F WCI  30
SEDALIA        CLEAR     37  30  75 SE14      30.11F WCI  28
WARSAW         NOT AVBL
MARSHALL       CLEAR     39  34  81 SE10      30.11F WCI  32
CHILLICOTHE      N/A     39  31  72 SE10      30.07F WCI  32
MOBERLY        CLEAR     36  27  69 SE12      30.13F WCI  27
KIRKSVILLE     CLEAR     33  25  72 S13       30.11F WCI  24

$$

MOZ041-047>049-056>058-063>065-088>090-097-290800-
...EASTERN AND SOUTHERN MISSOURI...

CITY           SKY/WX    TMP DP  RH WIND       PRES   REMARKS
ST. LOUIS INTL CLEAR     37  16  42 S13       30.26F WCI  29
SPIRIT OF STL  CLEAR     35  18  49 SE6       30.24F WCI  30
COLUMBIA       CLEAR     35  29  78 S15       30.15F WCI  25
JEFFERSON CITY CLEAR     36  29  75 SE10      30.18F WCI  28
MEXICO         CLEAR     36  30  80 SE12      30.17F WCI  27
HANNIBAL       FAIR      36  18  48 SE9       30.16F WCI  29
ROLLA          CLEAR     34  27  75 S14       30.17F WCI  25
LEBANON        CLEAR     34  30  86 SE16G22   30.15F WCI  23
OSAGE BEACH    CLEAR     36  27  69 SE9       30.15F WCI  29
SPRINGFIELD    CLEAR     35  30  82 SE22G31   30.11F WCI  23
BRANSON        CLEAR     34  30  86 SE14      30.17F WCI  24
NEVADA         CLEAR     37  32  81 SE9       30.09F WCI  31
JOPLIN         CLEAR     40  32  73 SE13      30.07F WCI  32
WEST PLAINS    CLEAR     32  28  85 SE5       30.23F WCI  27

$$

IAZ060-094-KSZ022-034>040-054-083-096-NEZ052-066-093-290800-
...KANSAS...SOUTHEAST NEBRASKA AND IOWA...

CITY           SKY/WX    TMP DP  RH WIND       PRES   REMARKS
TOPEKA         CLEAR     41  33  73 SE10      29.98F WCI  35
MANHATTAN      CLEAR     45  37  73 S7        29.93F
EMPORIA        CLEAR     41  36  82 SE13G21   29.97F WCI  34
CHANUTE        CLEAR     41  36  82 SE13      30.02F WCI  34
WICHITA        CLEAR     51  40  65 S15       29.93F
OMAHA          PTCLDY    43  32  65 S23       29.87F WCI  34
LINCOLN        CLEAR     44  34  67 S16G26    29.87F
FALLS CITY     CLEAR     40  31  70 SE15      29.94F WCI  32
LAMONI         CLEAR     37  29  72 S12       29.99F WCI  29
DES MOINES     PTCLDY    38  24  57 S17       30.00F WCI  28

$$




USA.gov is the U.S. government's official web portal to all federal, state and local government web resources and services.